Time,TemperatureF,DewpointF,PressureIn,WindDirection,WindDirectionDegrees,WindSpeedMPH,WindSpeedGustMPH,Humidity,HourlyPrecipIn,Conditions,Clouds,dailyrainin,SoftwareType,DateUTC
2013-04-16 00:03:00,59.1,51.2,30.33,ESE,113,0.0,1.3,75,0.00,,,0.00,WUHU216HW,2013-04-16 04:03:00,
2013-04-16 00:08:00,58.8,50.9,30.33,SE,135,0.0,0.0,75,0.00,,,0.00,WUHU216HW,2013-04-16 04:08:00,
2013-04-16 00:13:00,58.8,50.9,30.33,SE,135,0.0,0.0,75,0.00,,,0.00,WUHU216HW,2013-04-16 04:13:00,
2013-04-16 00:18:00,58.8,50.9,30.32,SE,135,0.0,0.8,75,0.00,,,0.00,WUHU216HW,2013-04-16 04:18:00,
2013-04-16 00:23:00,58.8,50.9,30.33,SSE,158,0.0,0.8,75,0.00,,,0.00,WUHU216HW,2013-04-16 04:23:00,
2013-04-16 00:28:00,58.8,50.9,30.33,SSE,158,0.0,0.0,75,0.00,,,0.00,WUHU216HW,2013-04-16 04:28:00,
2013-04-16 00:33:00,58.8,50.9,30.33,SE,135,0.0,0.0,75,0.00,,,0.00,WUHU216HW,2013-04-16 04:33:00,
2013-04-16 00:38:00,58.8,51.2,30.33,SE,135,0.0,0.0,76,0.00,,,0.00,WUHU216HW,2013-04-16 04:38:00,
2013-04-16 00:43:00,58.8,51.2,30.33,SE,135,0.0,0.0,76,0.00,,,0.00,WUHU216HW,2013-04-16 04:43:00,
2013-04-16 00:48:00,58.8,51.2,30.33,SSE,158,0.0,0.0,76,0.00,,,0.00,WUHU216HW,2013-04-16 04:48:00,
2013-04-16 00:53:00,58.8,51.2,30.33,SE,135,0.0,0.0,76,0.00,,,0.00,WUHU216HW,2013-04-16 04:53:00,
2013-04-16 00:58:00,58.6,51.0,30.33,SSE,158,0.0,0.0,76,0.00,,,0.00,WUHU216HW,2013-04-16 04:58:00,
2013-04-16 01:03:00,58.4,50.9,30.33,SSE,158,0.0,0.0,76,0.00,,,0.00,WUHU216HW,2013-04-16 05:03:00,
2013-04-16 01:08:00,58.2,50.7,30.33,SE,135,0.0,0.0,76,0.00,,,0.00,WUHU216HW,2013-04-16 05:08:00,
2013-04-16 01:13:00,58.1,50.5,30.33,SSE,158,0.0,0.0,76,0.00,,,0.00,WUHU216HW,2013-04-16 05:13:00,
2013-04-16 01:18:00,57.9,50.3,30.33,SSE,158,0.0,0.0,76,0.00,,,0.00,WUHU216HW,2013-04-16 05:18:00,
2013-04-16 01:23:00,57.9,50.3,30.33,SSE,158,0.0,0.0,76,0.00,,,0.00,WUHU216HW,2013-04-16 05:23:00,
2013-04-16 01:28:00,57.7,50.5,30.33,SSE,158,0.0,0.0,77,0.00,,,0.00,WUHU216HW,2013-04-16 05:28:00,
2013-04-16 01:33:00,57.7,50.5,30.33,SE,135,0.0,0.0,77,0.00,,,0.00,WUHU216HW,2013-04-16 05:33:00,
2013-04-16 01:38:00,57.5,50.3,30.33,SSE,158,0.0,0.0,77,0.00,,,0.00,WUHU216HW,2013-04-16 05:38:00,
2013-04-16 01:43:00,57.3,50.1,30.33,SE,135,0.0,0.0,77,0.00,,,0.00,WUHU216HW,2013-04-16 05:43:00,
2013-04-16 01:48:00,57.0,50.1,30.33,SSE,158,0.0,0.0,78,0.00,,,0.00,WUHU216HW,2013-04-16 05:48:00,
2013-04-16 01:53:00,57.0,50.1,30.33,SE,135,0.0,0.0,78,0.00,,,0.00,WUHU216HW,2013-04-16 05:53:00,
2013-04-16 01:58:00,57.0,50.1,30.33,SSE,158,0.0,0.0,78,0.00,,,0.00,WUHU216HW,2013-04-16 05:58:00,
2013-04-16 02:03:00,56.8,50.0,30.33,SSE,158,0.0,0.0,78,0.00,,,0.00,WUHU216HW,2013-04-16 06:03:00,
2013-04-16 02:08:00,56.8,50.0,30.33,SSE,158,0.0,0.0,78,0.00,,,0.00,WUHU216HW,2013-04-16 06:08:00,
2013-04-16 02:13:00,56.8,50.0,30.33,SE,135,0.0,0.0,78,0.00,,,0.00,WUHU216HW,2013-04-16 06:13:00,
2013-04-16 02:18:00,56.6,50.1,30.33,SE,135,0.0,0.0,79,0.00,,,0.00,WUHU216HW,2013-04-16 06:18:00,
2013-04-16 02:23:00,56.4,50.0,30.33,SE,135,0.0,0.0,79,0.00,,,0.00,WUHU216HW,2013-04-16 06:23:00,
2013-04-16 02:28:00,56.4,50.0,30.33,SE,135,0.0,0.0,79,0.00,,,0.00,WUHU216HW,2013-04-16 06:28:00,
2013-04-16 02:33:00,56.4,50.0,30.33,SE,135,0.0,0.0,79,0.00,,,0.00,WUHU216HW,2013-04-16 06:33:00,
2013-04-16 02:38:00,56.4,50.3,30.33,SE,135,0.0,0.0,80,0.00,,,0.00,WUHU216HW,2013-04-16 06:38:00,
2013-04-16 02:43:00,56.4,50.3,30.33,SE,135,0.0,0.0,80,0.00,,,0.00,WUHU216HW,2013-04-16 06:43:00,
2013-04-16 02:49:00,56.4,50.3,30.33,SE,135,0.0,0.0,80,0.00,,,0.00,WUHU216HW,2013-04-16 06:49:00,
2013-04-16 02:54:00,56.3,50.1,30.33,SSE,158,0.0,0.0,80,0.00,,,0.00,WUHU216HW,2013-04-16 06:54:00,
2013-04-16 02:59:00,56.3,50.1,30.33,SE,135,0.0,0.0,80,0.00,,,0.00,WUHU216HW,2013-04-16 06:59:00,
2013-04-16 03:04:00,56.3,50.5,30.33,SE,135,0.0,0.0,81,0.00,,,0.00,WUHU216HW,2013-04-16 07:04:00,
2013-04-16 03:09:00,56.3,50.5,30.33,ESE,113,0.0,0.0,81,0.00,,,0.00,WUHU216HW,2013-04-16 07:09:00,
2013-04-16 03:14:00,56.3,50.5,30.34,ESE,113,0.0,0.0,81,0.00,,,0.00,WUHU216HW,2013-04-16 07:14:00,
2013-04-16 03:19:00,56.3,50.5,30.33,ESE,113,0.0,0.0,81,0.00,,,0.00,WUHU216HW,2013-04-16 07:19:00,
2013-04-16 03:24:00,56.3,50.5,30.33,SSE,158,0.0,0.0,81,0.00,,,0.00,WUHU216HW,2013-04-16 07:24:00,
2013-04-16 03:29:00,56.3,50.8,30.33,SE,135,0.0,0.0,82,0.00,,,0.00,WUHU216HW,2013-04-16 07:29:00,
2013-04-16 03:34:00,56.3,50.8,30.33,SE,135,0.0,0.0,82,0.00,,,0.00,WUHU216HW,2013-04-16 07:34:00,
2013-04-16 03:39:00,56.3,50.8,30.33,SSE,158,0.0,0.0,82,0.00,,,0.00,WUHU216HW,2013-04-16 07:39:00,
2013-04-16 03:44:00,56.3,50.8,30.33,SE,135,0.0,0.0,82,0.00,,,0.00,WUHU216HW,2013-04-16 07:44:00,
2013-04-16 03:49:00,56.3,50.8,30.33,ESE,113,0.0,0.0,82,0.00,,,0.00,WUHU216HW,2013-04-16 07:49:00,
2013-04-16 03:54:00,56.4,51.0,30.33,SE,135,0.0,0.0,82,0.00,,,0.00,WUHU216HW,2013-04-16 07:54:00,
2013-04-16 03:59:00,56.4,51.0,30.33,SE,135,0.0,0.0,82,0.00,,,0.00,WUHU216HW,2013-04-16 07:59:00,
2013-04-16 04:04:00,56.4,51.0,30.33,SSE,158,0.0,0.0,82,0.00,,,0.00,WUHU216HW,2013-04-16 08:04:00,
2013-04-16 04:09:00,56.6,51.5,30.33,SSE,158,0.0,4.9,83,0.00,,,0.00,WUHU216HW,2013-04-16 08:09:00,
2013-04-16 04:14:00,56.8,51.3,30.33,South,180,0.0,4.9,82,0.00,,,0.00,WUHU216HW,2013-04-16 08:14:00,
2013-04-16 04:19:00,56.8,51.3,30.33,SE,135,0.0,0.0,82,0.00,,,0.00,WUHU216HW,2013-04-16 08:19:00,
2013-04-16 04:24:00,56.8,51.3,30.33,SE,135,0.0,0.0,82,0.00,,,0.00,WUHU216HW,2013-04-16 08:24:00,
2013-04-16 04:29:00,56.8,51.6,30.32,SE,135,0.0,0.0,83,0.00,,,0.00,WUHU216HW,2013-04-16 08:29:00,
2013-04-16 04:34:00,56.8,51.6,30.33,SE,135,0.0,0.0,83,0.00,,,0.00,WUHU216HW,2013-04-16 08:34:00,
2013-04-16 04:39:00,56.8,51.6,30.33,SE,135,0.0,0.0,83,0.00,,,0.00,WUHU216HW,2013-04-16 08:39:00,
2013-04-16 04:44:00,56.8,51.6,30.33,SE,135,0.0,0.0,83,0.00,,,0.00,WUHU216HW,2013-04-16 08:44:00,
2013-04-16 04:49:00,56.8,51.6,30.33,SE,135,0.0,0.0,83,0.00,,,0.00,WUHU216HW,2013-04-16 08:49:00,
2013-04-16 04:54:00,56.8,51.6,30.33,SSE,158,0.0,0.0,83,0.00,,,0.00,WUHU216HW,2013-04-16 08:54:00,
2013-04-16 04:59:00,56.8,51.6,30.33,SE,135,0.0,0.0,83,0.00,,,0.00,WUHU216HW,2013-04-16 08:59:00,
2013-04-16 05:04:00,57.0,51.8,30.33,SE,135,0.0,0.0,83,0.00,,,0.00,WUHU216HW,2013-04-16 09:04:00,
2013-04-16 05:09:00,57.0,51.8,30.33,SSE,158,0.0,0.0,83,0.00,,,0.00,WUHU216HW,2013-04-16 09:09:00,
2013-04-16 05:14:00,57.0,51.8,30.33,SE,135,0.0,0.0,83,0.00,,,0.00,WUHU216HW,2013-04-16 09:14:00,
2013-04-16 05:19:00,57.0,51.8,30.33,SE,135,0.0,0.0,83,0.00,,,0.00,WUHU216HW,2013-04-16 09:19:00,
2013-04-16 05:24:00,57.0,51.8,30.33,SE,135,0.0,0.0,83,0.00,,,0.00,WUHU216HW,2013-04-16 09:24:00,
2013-04-16 05:29:00,57.0,51.8,30.33,SE,135,0.0,0.0,83,0.00,,,0.00,WUHU216HW,2013-04-16 09:29:00,
2013-04-16 05:34:00,56.8,51.6,30.33,SSE,158,0.0,0.0,83,0.00,,,0.00,WUHU216HW,2013-04-16 09:34:00,
2013-04-16 05:39:00,56.8,51.6,30.32,SE,135,0.0,0.0,83,0.00,,,0.00,WUHU216HW,2013-04-16 09:39:00,
2013-04-16 05:44:00,57.0,52.1,30.32,SE,135,0.0,2.9,84,0.00,,,0.00,WUHU216HW,2013-04-16 09:44:00,
2013-04-16 05:49:00,57.0,52.1,30.32,SSE,158,5.8,5.8,84,0.00,,,0.00,WUHU216HW,2013-04-16 09:49:00,
2013-04-16 05:54:00,57.3,52.5,30.32,SE,135,0.0,5.8,84,0.00,,,0.00,WUHU216HW,2013-04-16 09:54:00,
2013-04-16 05:59:00,57.3,52.5,30.33,ESE,113,5.1,5.1,84,0.00,,,0.00,WUHU216HW,2013-04-16 09:59:00,
2013-04-16 06:04:00,57.5,52.7,30.33,SSE,158,0.8,5.1,84,0.00,,,0.00,WUHU216HW,2013-04-16 10:04:00,
2013-04-16 06:09:00,57.9,53.0,30.33,SE,135,0.0,6.0,84,0.00,,,0.00,WUHU216HW,2013-04-16 10:09:00,
2013-04-16 06:14:00,57.9,53.0,30.33,SSE,158,0.0,6.0,84,0.00,,,0.00,WUHU216HW,2013-04-16 10:14:00,
2013-04-16 06:19:00,57.9,53.0,30.33,SE,135,0.0,7.6,84,0.00,,,0.00,WUHU216HW,2013-04-16 10:19:00,
2013-04-16 06:24:00,58.1,53.2,30.34,SE,135,0.0,7.6,84,0.00,,,0.00,WUHU216HW,2013-04-16 10:24:00,
2013-04-16 06:29:00,58.1,53.2,30.34,SE,135,0.0,0.0,84,0.00,,,0.00,WUHU216HW,2013-04-16 10:29:00,
2013-04-16 06:34:00,58.1,53.2,30.34,ESE,113,0.0,0.0,84,0.00,,,0.00,WUHU216HW,2013-04-16 10:34:00,
2013-04-16 06:39:00,58.2,53.4,30.34,SE,135,0.0,0.0,84,0.00,,,0.00,WUHU216HW,2013-04-16 10:39:00,
2013-04-16 06:44:00,58.2,53.1,30.34,SE,135,0.0,0.0,83,0.00,,,0.00,WUHU216HW,2013-04-16 10:44:00,
2013-04-16 06:49:00,58.2,53.1,30.35,SSE,158,0.0,0.0,83,0.00,,,0.00,WUHU216HW,2013-04-16 10:49:00,
2013-04-16 06:54:00,58.2,53.1,30.34,SE,135,0.0,0.0,83,0.00,,,0.00,WUHU216HW,2013-04-16 10:54:00,
2013-04-16 06:59:00,58.2,53.1,30.35,SE,135,0.0,0.0,83,0.00,,,0.00,WUHU216HW,2013-04-16 10:59:00,
2013-04-16 07:04:00,58.2,53.1,30.35,SE,135,0.0,0.0,83,0.00,,,0.00,WUHU216HW,2013-04-16 11:04:00,
2013-04-16 07:09:00,58.2,53.1,30.36,SE,135,0.0,0.0,83,0.00,,,0.00,WUHU216HW,2013-04-16 11:09:00,
2013-04-16 07:14:00,58.2,53.1,30.36,SE,135,0.0,0.0,83,0.00,,,0.00,WUHU216HW,2013-04-16 11:14:00,
2013-04-16 07:19:00,58.1,52.9,30.36,SE,135,0.0,0.0,83,0.00,,,0.00,WUHU216HW,2013-04-16 11:19:00,
2013-04-16 07:24:00,58.1,52.9,30.36,SE,135,0.0,0.0,83,0.00,,,0.00,WUHU216HW,2013-04-16 11:24:00,
2013-04-16 07:29:00,58.1,52.9,30.36,SE,135,0.0,0.0,83,0.00,,,0.00,WUHU216HW,2013-04-16 11:29:00,
2013-04-16 07:34:00,58.1,52.9,30.37,SSE,158,0.0,0.0,83,0.00,,,0.00,WUHU216HW,2013-04-16 11:34:00,
2013-04-16 07:39:00,57.9,52.7,30.37,South,180,0.0,0.0,83,0.00,,,0.00,WUHU216HW,2013-04-16 11:39:00,
2013-04-16 07:44:00,58.1,52.9,30.37,SE,135,1.7,1.7,83,0.00,,,0.00,WUHU216HW,2013-04-16 11:44:00,
2013-04-16 07:49:00,58.2,53.4,30.37,SE,135,0.0,1.7,84,0.00,,,0.00,WUHU216HW,2013-04-16 11:49:00,
2013-04-16 07:54:00,58.2,53.4,30.37,SE,135,0.0,1.7,84,0.00,,,0.00,WUHU216HW,2013-04-16 11:54:00,
2013-04-16 07:59:00,58.2,53.4,30.37,SE,135,0.0,3.1,84,0.00,,,0.00,WUHU216HW,2013-04-16 11:59:00,
2013-04-16 08:04:00,58.4,53.6,30.38,SSE,158,0.0,3.1,84,0.00,,,0.00,WUHU216HW,2013-04-16 12:04:00,
2013-04-16 08:09:00,58.6,53.8,30.38,SE,135,0.0,0.0,84,0.00,,,0.00,WUHU216HW,2013-04-16 12:09:00,
2013-04-16 08:14:00,58.8,53.9,30.38,SE,135,0.0,0.0,84,0.00,,,0.00,WUHU216HW,2013-04-16 12:14:00,
2013-04-16 08:19:00,58.8,53.9,30.38,SSE,158,0.0,0.0,84,0.00,,,0.00,WUHU216HW,2013-04-16 12:19:00,
2013-04-16 08:24:00,58.8,53.6,30.38,ESE,113,0.0,0.0,83,0.00,,,0.00,WUHU216HW,2013-04-16 12:24:00,
2013-04-16 08:29:00,59.0,53.8,30.38,SE,135,0.0,0.0,83,0.00,,,0.00,WUHU216HW,2013-04-16 12:29:00,
2013-04-16 08:34:00,59.1,54.3,30.38,SE,135,0.0,0.0,84,0.00,,,0.00,WUHU216HW,2013-04-16 12:34:00,
2013-04-16 08:39:00,59.5,54.3,30.38,SSE,158,0.0,2.4,83,0.00,,,0.00,WUHU216HW,2013-04-16 12:39:00,
2013-04-16 08:44:00,59.7,54.5,30.39,SSE,158,4.6,4.6,83,0.00,,,0.00,WUHU216HW,2013-04-16 12:44:00,
2013-04-16 08:49:00,59.7,54.5,30.39,SE,135,0.0,4.6,83,0.00,,,0.00,WUHU216HW,2013-04-16 12:49:00,
2013-04-16 08:54:00,60.0,54.9,30.39,East,90,0.0,5.5,83,0.00,,,0.00,WUHU216HW,2013-04-16 12:54:00,
2013-04-16 08:59:00,60.2,54.7,30.39,ESE,113,0.0,5.5,82,0.00,,,0.00,WUHU216HW,2013-04-16 12:59:00,
2013-04-16 09:04:00,60.4,54.9,30.39,ESE,113,0.0,0.0,82,0.00,,,0.00,WUHU216HW,2013-04-16 13:04:00,
2013-04-16 09:09:00,60.6,55.1,30.39,SSE,158,0.0,0.0,82,0.00,,,0.00,WUHU216HW,2013-04-16 13:09:00,
2013-04-16 09:14:00,60.6,55.1,30.39,SE,135,0.0,0.0,82,0.00,,,0.00,WUHU216HW,2013-04-16 13:14:00,
2013-04-16 09:19:00,60.9,55.4,30.39,SE,135,4.6,4.6,82,0.00,,,0.00,WUHU216HW,2013-04-16 13:19:00,
2013-04-16 09:24:00,61.1,55.3,30.39,SE,135,0.0,4.6,81,0.00,,,0.00,WUHU216HW,2013-04-16 13:24:00,
2013-04-16 09:29:00,61.3,55.4,30.39,SSE,158,0.0,0.0,81,0.00,,,0.00,WUHU216HW,2013-04-16 13:29:00,
2013-04-16 09:34:00,61.7,55.8,30.39,SSE,158,2.9,2.9,81,0.00,,,0.00,WUHU216HW,2013-04-16 13:34:00,
2013-04-16 09:39:00,61.8,55.9,30.39,SE,135,0.0,2.9,81,0.00,,,0.00,WUHU216HW,2013-04-16 13:39:00,
2013-04-16 09:44:00,62.2,56.3,30.39,SE,135,0.0,6.9,81,0.00,,,0.00,WUHU216HW,2013-04-16 13:44:00,
2013-04-16 09:49:00,62.4,56.1,30.39,SSE,158,0.0,6.9,80,0.00,,,0.00,WUHU216HW,2013-04-16 13:49:00,
2013-04-16 09:54:00,62.4,56.1,30.39,SE,135,0.0,7.6,80,0.00,,,0.00,WUHU216HW,2013-04-16 13:54:00,
2013-04-16 09:59:00,62.9,56.6,30.39,SSE,158,2.4,7.6,80,0.00,,,0.00,WUHU216HW,2013-04-16 13:59:00,
2013-04-16 10:04:00,63.1,56.8,30.40,SE,135,0.0,2.4,80,0.00,,,0.00,WUHU216HW,2013-04-16 14:04:00,
2013-04-16 10:09:00,63.5,56.8,30.40,SE,135,0.0,0.0,79,0.00,,,0.00,WUHU216HW,2013-04-16 14:09:00,
2013-04-16 10:14:00,63.6,56.6,30.40,ESE,113,0.0,2.4,78,0.00,,,0.00,WUHU216HW,2013-04-16 14:14:00,
2013-04-16 10:19:00,64.0,57.0,30.40,SSE,158,0.0,2.4,78,0.00,,,0.00,WUHU216HW,2013-04-16 14:19:00,
2013-04-16 10:24:00,64.2,57.2,30.40,SSE,158,5.5,5.5,78,0.00,,,0.00,WUHU216HW,2013-04-16 14:24:00,
2013-04-16 10:29:00,64.5,57.1,30.40,East,90,4.2,5.5,77,0.00,,,0.00,WUHU216HW,2013-04-16 14:29:00,
2013-04-16 10:34:00,64.9,57.5,30.40,SE,135,0.0,5.5,77,0.00,,,0.00,WUHU216HW,2013-04-16 14:34:00,
2013-04-16 10:39:00,65.4,58.0,30.40,SE,135,0.0,0.0,77,0.00,,,0.00,WUHU216HW,2013-04-16 14:39:00,
2013-04-16 10:44:00,65.8,58.4,30.40,SE,135,0.0,0.0,77,0.00,,,0.00,WUHU216HW,2013-04-16 14:44:00,
2013-04-16 10:49:00,66.0,58.2,30.40,SE,135,0.0,0.0,76,0.00,,,0.00,WUHU216HW,2013-04-16 14:49:00,
2013-04-16 10:54:00,66.5,58.3,30.40,ESE,113,0.0,0.6,75,0.00,,,0.00,WUHU216HW,2013-04-16 14:54:00,
2013-04-16 10:59:00,66.7,58.1,30.40,East,90,0.0,0.6,74,0.00,,,0.00,WUHU216HW,2013-04-16 14:59:00,
2013-04-16 11:04:00,67.1,58.5,30.40,SE,135,0.0,0.0,74,0.00,,,0.00,WUHU216HW,2013-04-16 15:04:00,
2013-04-16 11:09:00,67.8,59.6,30.40,SE,135,0.0,0.0,75,0.00,,,0.00,WUHU216HW,2013-04-16 15:09:00,
2013-04-16 11:14:00,68.5,59.5,30.40,SE,135,0.0,4.2,73,0.00,,,0.00,WUHU216HW,2013-04-16 15:14:00,
2013-04-16 11:19:00,69.0,60.0,30.40,SE,135,0.0,4.2,73,0.00,,,0.00,WUHU216HW,2013-04-16 15:19:00,
2013-04-16 11:24:00,69.9,60.4,30.40,SSE,158,0.0,0.0,72,0.00,,,0.00,WUHU216HW,2013-04-16 15:24:00,
2013-04-16 11:29:00,70.5,61.0,30.40,SE,135,0.0,0.0,72,0.00,,,0.00,WUHU216HW,2013-04-16 15:29:00,
2013-04-16 11:34:00,71.2,60.9,30.40,WSW,248,0.0,0.0,70,0.00,,,0.00,WUHU216HW,2013-04-16 15:34:00,
2013-04-16 11:39:00,72.1,61.4,30.40,SE,135,0.0,0.0,69,0.00,,,0.00,WUHU216HW,2013-04-16 15:39:00,
2013-04-16 11:44:00,72.6,61.0,30.40,SE,135,0.0,0.0,67,0.00,,,0.00,WUHU216HW,2013-04-16 15:44:00,
2013-04-16 11:49:00,73.2,60.7,30.40,SSE,158,0.0,0.0,65,0.00,,,0.00,WUHU216HW,2013-04-16 15:49:00,
2013-04-16 11:54:00,73.5,60.6,30.40,ESE,113,0.0,0.0,64,0.00,,,0.00,WUHU216HW,2013-04-16 15:54:00,
2013-04-16 11:59:00,73.7,60.9,30.40,ESE,113,0.0,0.0,64,0.00,,,0.00,WUHU216HW,2013-04-16 15:59:00,
2013-04-16 12:04:00,74.1,60.5,30.40,ESE,113,0.0,0.0,63,0.00,,,0.00,WUHU216HW,2013-04-16 16:04:00,
2013-04-16 12:09:00,74.3,59.5,30.39,North,0,0.0,0.0,60,0.00,,,0.00,WUHU216HW,2013-04-16 16:09:00,
2013-04-16 12:15:00,74.3,59.5,30.39,North,0,0.0,0.0,60,0.00,,,0.00,WUHU216HW,2013-04-16 16:15:00,
2013-04-16 12:20:00,75.0,61.9,30.39,SE,135,0.0,0.0,64,0.00,,,0.00,WUHU216HW,2013-04-16 16:20:00,
2013-04-16 12:25:00,75.7,60.9,30.39,SW,225,0.0,0.0,60,0.00,,,0.00,WUHU216HW,2013-04-16 16:25:00,
2013-04-16 12:30:00,76.4,61.5,30.39,SE,135,0.0,0.0,60,0.00,,,0.00,WUHU216HW,2013-04-16 16:30:00,
2013-04-16 12:35:00,76.8,61.3,30.39,SE,135,0.0,0.0,59,0.00,,,0.00,WUHU216HW,2013-04-16 16:35:00,
2013-04-16 12:40:00,77.1,62.2,30.39,SSE,158,0.0,0.0,60,0.00,,,0.00,WUHU216HW,2013-04-16 16:40:00,
2013-04-16 12:45:00,77.7,61.7,30.39,SE,135,0.0,0.0,58,0.00,,,0.00,WUHU216HW,2013-04-16 16:45:00,
2013-04-16 12:50:00,78.0,61.5,30.39,ESE,113,0.0,0.0,57,0.00,,,0.00,WUHU216HW,2013-04-16 16:50:00,
2013-04-16 12:55:00,78.2,61.7,30.38,SE,135,0.0,0.0,57,0.00,,,0.00,WUHU216HW,2013-04-16 16:55:00,
2013-04-16 13:00:00,78.6,61.5,30.38,SE,135,2.4,2.4,56,0.00,,,0.00,WUHU216HW,2013-04-16 17:00:00,
2013-04-16 13:05:00,78.6,61.5,30.38,SSE,158,0.0,2.4,56,0.00,,,0.00,WUHU216HW,2013-04-16 17:05:00,
2013-04-16 13:10:00,79.1,62.0,30.38,SSE,158,0.0,2.4,56,0.00,,,0.00,WUHU216HW,2013-04-16 17:10:00,
2013-04-16 13:15:00,79.1,60.5,30.37,NW,315,0.0,0.0,53,0.00,,,0.00,WUHU216HW,2013-04-16 17:15:00,
2013-04-16 13:20:00,78.9,60.3,30.37,NW,315,0.0,0.0,53,0.00,,,0.00,WUHU216HW,2013-04-16 17:20:00,
2013-04-16 13:25:00,79.1,60.5,30.37,SW,225,0.0,0.0,53,0.00,,,0.00,WUHU216HW,2013-04-16 17:25:00,
2013-04-16 13:30:00,79.3,60.1,30.37,WSW,248,0.0,0.0,52,0.00,,,0.00,WUHU216HW,2013-04-16 17:30:00,
2013-04-16 13:35:00,79.5,61.3,30.37,West,270,0.0,0.0,54,0.00,,,0.00,WUHU216HW,2013-04-16 17:35:00,
2013-04-16 13:40:00,79.8,61.7,30.37,WSW,248,0.0,0.0,54,0.00,,,0.00,WUHU216HW,2013-04-16 17:40:00,
2013-04-16 13:45:00,80.7,61.4,30.37,SW,225,0.0,0.0,52,0.00,,,0.00,WUHU216HW,2013-04-16 17:45:00,
2013-04-16 13:50:00,81.1,62.3,30.36,WSW,248,0.0,0.0,53,0.00,,,0.00,WUHU216HW,2013-04-16 17:50:00,
2013-04-16 13:55:00,81.6,62.2,30.36,WSW,248,0.0,0.0,52,0.00,,,0.00,WUHU216HW,2013-04-16 17:55:00,
2013-04-16 14:00:00,81.6,61.2,30.36,WSW,248,0.0,0.0,50,0.00,,,0.00,WUHU216HW,2013-04-16 18:00:00,
2013-04-16 14:05:00,81.3,60.2,30.36,WSW,248,0.0,0.0,49,0.00,,,0.00,WUHU216HW,2013-04-16 18:05:00,
2013-04-16 14:10:00,80.9,61.1,30.35,WSW,248,0.0,0.0,51,0.00,,,0.00,WUHU216HW,2013-04-16 18:10:00,
2013-04-16 14:15:00,81.3,61.4,30.35,WSW,248,0.0,0.0,51,0.00,,,0.00,WUHU216HW,2013-04-16 18:15:00,
2013-04-16 14:20:00,82.0,62.0,30.35,WSW,248,0.0,0.0,51,0.00,,,0.00,WUHU216HW,2013-04-16 18:20:00,
2013-04-16 14:25:00,82.2,61.1,30.35,WSW,248,0.0,0.0,49,0.00,,,0.00,WUHU216HW,2013-04-16 18:25:00,
2013-04-16 14:30:00,82.4,61.8,30.35,WSW,248,0.0,0.0,50,0.00,,,0.00,WUHU216HW,2013-04-16 18:30:00,
2013-04-16 14:35:00,83.1,62.6,30.35,WSW,248,0.0,0.0,50,0.00,,,0.00,WUHU216HW,2013-04-16 18:35:00,
2013-04-16 14:40:00,83.6,62.5,30.35,WSW,248,0.0,0.0,49,0.00,,,0.00,WUHU216HW,2013-04-16 18:40:00,
2013-04-16 14:45:00,83.8,60.8,30.34,WSW,248,0.0,0.0,46,0.00,,,0.00,WUHU216HW,2013-04-16 18:45:00,
2013-04-16 14:50:00,83.4,61.7,30.34,WSW,248,0.0,0.0,48,0.00,,,0.00,WUHU216HW,2013-04-16 18:50:00,
2013-04-16 14:55:00,84.0,62.2,30.34,WSW,248,3.5,3.5,48,0.00,,,0.00,WUHU216HW,2013-04-16 18:55:00,
2013-04-16 15:00:00,84.5,62.1,30.34,WSW,248,0.0,3.5,47,0.00,,,0.00,WUHU216HW,2013-04-16 19:00:00,
2013-04-16 15:05:00,84.9,62.4,30.34,WSW,248,0.0,3.5,47,0.00,,,0.00,WUHU216HW,2013-04-16 19:05:00,
2013-04-16 15:10:00,85.2,62.1,30.33,WSW,248,0.0,0.0,46,0.00,,,0.00,WUHU216HW,2013-04-16 19:10:00,
2013-04-16 15:15:00,86.1,62.9,30.33,WSW,248,0.0,0.0,46,0.00,,,0.00,WUHU216HW,2013-04-16 19:15:00,
2013-04-16 15:20:00,86.5,62.6,30.33,WSW,248,0.0,0.0,45,0.00,,,0.00,WUHU216HW,2013-04-16 19:20:00,
2013-04-16 15:25:00,86.7,61.5,30.32,WSW,248,0.0,0.0,43,0.00,,,0.00,WUHU216HW,2013-04-16 19:25:00,
2013-04-16 15:30:00,87.0,63.1,30.32,WSW,248,0.0,0.0,45,0.00,,,0.00,WUHU216HW,2013-04-16 19:30:00,
2013-04-16 15:35:00,87.2,61.3,30.32,WSW,248,0.0,0.0,42,0.00,,,0.00,WUHU216HW,2013-04-16 19:35:00,
2013-04-16 15:40:00,87.0,61.2,30.32,WSW,248,0.0,0.0,42,0.00,,,0.00,WUHU216HW,2013-04-16 19:40:00,
2013-04-16 15:45:00,86.9,61.0,30.32,WSW,248,0.0,0.0,42,0.00,,,0.00,WUHU216HW,2013-04-16 19:45:00,
2013-04-16 15:50:00,86.3,60.5,30.32,WSW,248,0.0,0.0,42,0.00,,,0.00,WUHU216HW,2013-04-16 19:50:00,
2013-04-16 15:55:00,85.8,60.0,30.32,WSW,248,0.0,0.0,42,0.00,,,0.00,WUHU216HW,2013-04-16 19:55:00,
2013-04-16 16:00:00,85.1,60.0,30.31,SE,135,0.0,0.0,43,0.00,,,0.00,WUHU216HW,2013-04-16 20:00:00,
2013-04-16 16:05:00,84.3,59.4,30.31,SSE,158,0.0,0.0,43,0.00,,,0.00,WUHU216HW,2013-04-16 20:05:00,
2013-04-16 16:10:00,84.0,59.0,30.31,SSE,158,0.0,1.7,43,0.00,,,0.00,WUHU216HW,2013-04-16 20:10:00,
2013-04-16 16:15:00,83.1,58.8,30.31,South,180,0.0,1.7,44,0.00,,,0.00,WUHU216HW,2013-04-16 20:15:00,
2013-04-16 16:20:00,82.5,58.9,30.31,SE,135,0.0,3.8,45,0.00,,,0.00,WUHU216HW,2013-04-16 20:20:00,
2013-04-16 16:25:00,82.2,58.6,30.31,SE,135,0.0,3.8,45,0.00,,,0.00,WUHU216HW,2013-04-16 20:25:00,
2013-04-16 16:30:00,81.6,58.6,30.31,SE,135,0.0,0.0,46,0.00,,,0.00,WUHU216HW,2013-04-16 20:30:00,
2013-04-16 16:35:00,81.1,58.2,30.31,SE,135,0.0,0.0,46,0.00,,,0.00,WUHU216HW,2013-04-16 20:35:00,
2013-04-16 16:40:00,80.7,58.5,30.31,SE,135,0.0,0.0,47,0.00,,,0.00,WUHU216HW,2013-04-16 20:40:00,
2013-04-16 16:45:00,80.4,58.2,30.30,East,90,6.0,6.0,47,0.00,,,0.00,WUHU216HW,2013-04-16 20:45:00,
2013-04-16 16:50:00,79.8,57.7,30.30,SSW,203,0.0,6.0,47,0.00,,,0.00,WUHU216HW,2013-04-16 20:50:00,
2013-04-16 16:55:00,79.7,58.2,30.30,ESE,113,0.0,6.0,48,0.00,,,0.00,WUHU216HW,2013-04-16 20:55:00,
2013-04-16 17:00:00,79.3,57.9,30.30,SE,135,0.0,0.0,48,0.00,,,0.00,WUHU216HW,2013-04-16 21:00:00,
2013-04-16 17:05:00,78.9,58.1,30.31,SE,135,0.0,0.0,49,0.00,,,0.00,WUHU216HW,2013-04-16 21:05:00,
2013-04-16 17:10:00,78.9,57.5,30.30,SE,135,3.3,4.0,48,0.00,,,0.00,WUHU216HW,2013-04-16 21:10:00,
2013-04-16 17:15:00,78.6,57.8,30.31,SE,135,0.0,5.1,49,0.00,,,0.00,WUHU216HW,2013-04-16 21:15:00,
2013-04-16 17:20:00,78.6,57.8,30.31,ESE,113,0.0,5.1,49,0.00,,,0.00,WUHU216HW,2013-04-16 21:20:00,
2013-04-16 17:25:00,78.4,58.3,30.31,SSE,158,0.0,4.4,50,0.00,,,0.00,WUHU216HW,2013-04-16 21:25:00,
2013-04-16 17:30:00,78.4,58.3,30.31,WSW,248,0.0,0.0,50,0.00,,,0.00,WUHU216HW,2013-04-16 21:30:00,
2013-04-16 17:35:00,78.4,58.3,30.31,WSW,248,0.0,0.0,50,0.00,,,0.00,WUHU216HW,2013-04-16 21:35:00,
2013-04-16 17:40:00,78.4,58.3,30.30,WSW,248,0.0,0.0,50,0.00,,,0.00,WUHU216HW,2013-04-16 21:40:00,
2013-04-16 17:45:00,78.4,58.3,30.31,WSW,248,0.0,0.0,50,0.00,,,0.00,WUHU216HW,2013-04-16 21:45:00,
2013-04-16 17:50:00,78.0,57.9,30.31,WSW,248,0.0,0.0,50,0.00,,,0.00,WUHU216HW,2013-04-16 21:50:00,
2013-04-16 17:55:00,78.0,57.9,30.31,WSW,248,0.0,2.0,50,0.00,,,0.00,WUHU216HW,2013-04-16 21:55:00,
2013-04-16 18:00:00,77.7,57.6,30.31,WSW,248,0.0,2.0,50,0.00,,,0.00,WUHU216HW,2013-04-16 22:00:00,
2013-04-16 18:05:00,77.5,57.5,30.31,ESE,113,0.0,0.0,50,0.00,,,0.00,WUHU216HW,2013-04-16 22:05:00,
2013-04-16 18:10:00,77.5,58.0,30.31,SE,135,0.0,0.0,51,0.00,,,0.00,WUHU216HW,2013-04-16 22:10:00,
2013-04-16 18:15:00,77.5,58.0,30.31,SE,135,0.0,1.7,51,0.00,,,0.00,WUHU216HW,2013-04-16 22:15:00,
2013-04-16 18:20:00,77.3,57.8,30.31,SE,135,0.8,1.7,51,0.00,,,0.00,WUHU216HW,2013-04-16 22:20:00,
2013-04-16 18:25:00,77.1,57.1,30.32,SE,135,0.0,2.4,50,0.00,,,0.00,WUHU216HW,2013-04-16 22:25:00,
2013-04-16 18:30:00,76.8,57.3,30.31,SE,135,5.8,5.8,51,0.00,,,0.00,WUHU216HW,2013-04-16 22:30:00,
2013-04-16 18:35:00,76.4,57.0,30.31,SSE,158,5.5,5.8,51,0.00,,,0.00,WUHU216HW,2013-04-16 22:35:00,
2013-04-16 18:40:00,76.1,57.2,30.32,SE,135,2.4,5.8,52,0.00,,,0.00,WUHU216HW,2013-04-16 22:40:00,
2013-04-16 18:45:00,76.1,57.2,30.32,SE,135,0.0,2.4,52,0.00,,,0.00,WUHU216HW,2013-04-16 22:45:00,
2013-04-16 18:50:00,75.7,56.8,30.32,SSE,158,0.0,0.0,52,0.00,,,0.00,WUHU216HW,2013-04-16 22:50:00,
2013-04-16 18:55:00,75.5,56.7,30.32,SE,135,4.0,4.0,52,0.00,,,0.00,WUHU216HW,2013-04-16 22:55:00,
2013-04-16 19:00:00,75.0,56.2,30.32,SSE,158,0.0,4.0,52,0.00,,,0.00,WUHU216HW,2013-04-16 23:00:00,
2013-04-16 19:05:00,74.8,56.5,30.32,SSE,158,0.0,0.0,53,0.00,,,0.00,WUHU216HW,2013-04-16 23:05:00,
2013-04-16 19:10:00,74.4,56.1,30.32,SSE,158,0.0,0.0,53,0.00,,,0.00,WUHU216HW,2013-04-16 23:10:00,
2013-04-16 19:15:00,74.1,55.8,30.32,SSE,158,0.0,0.0,53,0.00,,,0.00,WUHU216HW,2013-04-16 23:15:00,
2013-04-16 19:20:00,73.9,56.1,30.32,SE,135,0.0,0.0,54,0.00,,,0.00,WUHU216HW,2013-04-16 23:20:00,
2013-04-16 19:25:00,73.2,55.7,30.32,SE,135,0.0,0.0,54,0.00,,,0.00,WUHU216HW,2013-04-16 23:25:00,
2013-04-16 19:30:00,73.2,55.9,30.32,SE,135,0.0,0.0,55,0.00,,,0.00,WUHU216HW,2013-04-16 23:30:00,
2013-04-16 19:35:00,73.0,55.7,30.32,SE,135,0.0,0.0,55,0.00,,,0.00,WUHU216HW,2013-04-16 23:35:00,
2013-04-16 19:40:00,72.6,55.9,30.32,SSE,158,0.0,0.0,56,0.00,,,0.00,WUHU216HW,2013-04-16 23:40:00,
2013-04-16 19:45:00,72.3,55.6,30.32,SE,135,0.0,0.0,56,0.00,,,0.00,WUHU216HW,2013-04-16 23:45:00,
2013-04-16 19:50:00,72.1,55.4,30.32,SE,135,0.0,0.0,56,0.00,,,0.00,WUHU216HW,2013-04-16 23:50:00,
2013-04-16 19:55:00,71.9,55.6,30.32,SSE,158,0.0,1.5,56,0.00,,,0.00,WUHU216HW,2013-04-16 23:55:00,
2013-04-16 20:00:00,71.4,55.3,30.32,SSE,158,0.0,4.4,57,0.00,,,0.00,WUHU216HW,2013-04-17 00:00:00,
2013-04-16 20:05:00,71.2,55.1,30.32,SSE,158,6.0,6.0,57,0.00,,,0.00,WUHU216HW,2013-04-17 00:05:00,
2013-04-16 20:10:00,71.2,55.6,30.33,SE,135,2.2,6.0,58,0.00,,,0.00,WUHU216HW,2013-04-17 00:10:00,
2013-04-16 20:15:00,70.8,55.3,30.33,SE,135,0.0,3.5,58,0.00,,,0.00,WUHU216HW,2013-04-17 00:15:00,
2013-04-16 20:20:00,70.5,55.0,30.33,SSE,158,0.0,2.2,58,0.00,,,0.00,WUHU216HW,2013-04-17 00:20:00,
2013-04-16 20:25:00,70.5,54.8,30.34,SE,135,0.0,2.2,59,0.00,,,0.00,WUHU216HW,2013-04-17 00:25:00,
2013-04-16 20:30:00,70.1,55.2,30.33,SSE,158,0.0,0.0,59,0.00,,,0.00,WUHU216HW,2013-04-17 00:30:00,
2013-04-16 20:35:00,69.9,55.0,30.33,SE,135,0.0,0.0,59,0.00,,,0.00,WUHU216HW,2013-04-17 00:35:00,
2013-04-16 20:40:00,69.9,55.0,30.34,SE,135,0.0,0.0,59,0.00,,,0.00,WUHU216HW,2013-04-17 00:40:00,
2013-04-16 20:45:00,69.6,55.2,30.34,ESE,113,0.0,0.0,60,0.00,,,0.00,WUHU216HW,2013-04-17 00:45:00,
2013-04-16 20:50:00,69.6,55.2,30.34,SSE,158,0.0,0.0,60,0.00,,,0.00,WUHU216HW,2013-04-17 00:50:00,
2013-04-16 20:55:00,69.4,55.0,30.34,SE,135,0.0,0.0,60,0.00,,,0.00,WUHU216HW,2013-04-17 00:55:00,
2013-04-16 21:00:00,69.4,55.0,30.34,SE,135,0.0,2.6,60,0.00,,,0.00,WUHU216HW,2013-04-17 01:00:00,
2013-04-16 21:05:00,69.0,55.0,30.34,SE,135,0.0,2.6,61,0.00,,,0.00,WUHU216HW,2013-04-17 01:05:00,
2013-04-16 21:10:00,69.0,55.0,30.34,SE,135,0.0,0.0,61,0.00,,,0.00,WUHU216HW,2013-04-17 01:10:00,
2013-04-16 21:15:00,68.9,54.9,30.34,SE,135,0.0,0.0,61,0.00,,,0.00,WUHU216HW,2013-04-17 01:15:00,
2013-04-16 21:20:00,68.7,54.7,30.34,SE,135,0.0,0.0,61,0.00,,,0.00,WUHU216HW,2013-04-17 01:20:00,
2013-04-16 21:25:00,68.7,54.7,30.34,SE,135,0.0,0.0,61,0.00,,,0.00,WUHU216HW,2013-04-17 01:25:00,
2013-04-16 21:30:00,68.5,54.5,30.35,SE,135,0.0,0.0,61,0.00,,,0.00,WUHU216HW,2013-04-17 01:30:00,
2013-04-16 21:35:00,68.3,54.8,30.35,SE,135,0.0,0.0,62,0.00,,,0.00,WUHU216HW,2013-04-17 01:35:00,
2013-04-16 21:40:00,68.1,54.6,30.35,SE,135,0.0,0.0,62,0.00,,,0.00,WUHU216HW,2013-04-17 01:40:00,
2013-04-16 21:45:00,68.1,54.6,30.36,SSE,158,0.0,0.0,62,0.00,,,0.00,WUHU216HW,2013-04-17 01:45:00,
2013-04-16 21:50:00,67.8,54.7,30.36,SE,135,2.4,2.4,63,0.00,,,0.00,WUHU216HW,2013-04-17 01:50:00,
2013-04-16 21:56:00,67.8,54.7,30.36,ESE,113,0.0,2.4,63,0.00,,,0.00,WUHU216HW,2013-04-17 01:56:00,
2013-04-16 22:01:00,67.8,54.7,30.37,SE,135,0.0,2.4,63,0.00,,,0.00,WUHU216HW,2013-04-17 02:01:00,
2013-04-16 22:06:00,67.8,54.7,30.36,ESE,113,0.0,0.0,63,0.00,,,0.00,WUHU216HW,2013-04-17 02:06:00,
2013-04-16 22:11:00,67.8,54.7,30.37,ESE,113,0.2,5.8,63,0.00,,,0.00,WUHU216HW,2013-04-17 02:11:00,
2013-04-16 22:16:00,67.8,55.1,30.37,SE,135,3.3,5.8,64,0.00,,,0.00,WUHU216HW,2013-04-17 02:16:00,
2013-04-16 22:21:00,67.8,55.1,30.37,SE,135,0.0,3.3,64,0.00,,,0.00,WUHU216HW,2013-04-17 02:21:00,
2013-04-16 22:26:00,67.8,55.1,30.37,SE,135,0.0,2.2,64,0.00,,,0.00,WUHU216HW,2013-04-17 02:26:00,
2013-04-16 22:31:00,67.8,55.1,30.37,SE,135,0.0,4.6,64,0.00,,,0.00,WUHU216HW,2013-04-17 02:31:00,
2013-04-16 22:36:00,67.8,55.1,30.36,SE,135,0.0,4.6,64,0.00,,,0.00,WUHU216HW,2013-04-17 02:36:00,
2013-04-16 22:41:00,67.8,55.1,30.36,SSE,158,4.9,4.9,64,0.00,,,0.00,WUHU216HW,2013-04-17 02:41:00,
2013-04-16 22:46:00,67.8,55.1,30.36,SE,135,0.0,4.9,64,0.00,,,0.00,WUHU216HW,2013-04-17 02:46:00,
2013-04-16 22:51:00,67.8,55.1,30.37,SE,135,1.1,4.9,64,0.00,,,0.00,WUHU216HW,2013-04-17 02:51:00,
2013-04-16 22:56:00,67.6,54.9,30.37,SE,135,0.0,1.1,64,0.00,,,0.00,WUHU216HW,2013-04-17 02:56:00,
2013-04-16 23:01:00,67.6,54.9,30.36,SSE,158,0.0,1.1,64,0.00,,,0.00,WUHU216HW,2013-04-17 03:01:00,
2013-04-16 23:06:00,67.6,54.9,30.36,SSE,158,0.0,4.2,64,0.00,,,0.00,WUHU216HW,2013-04-17 03:06:00,
2013-04-16 23:11:00,67.6,54.9,30.36,SE,135,3.3,4.2,64,0.00,,,0.00,WUHU216HW,2013-04-17 03:11:00,
2013-04-16 23:16:00,67.6,54.9,30.36,SE,135,0.0,3.3,64,0.00,,,0.00,WUHU216HW,2013-04-17 03:16:00,
2013-04-16 23:21:00,67.6,54.9,30.35,SSE,158,0.0,6.4,64,0.00,,,0.00,WUHU216HW,2013-04-17 03:21:00,
2013-04-16 23:26:00,67.6,54.9,30.36,SSE,158,6.0,6.4,64,0.00,,,0.00,WUHU216HW,2013-04-17 03:26:00,
2013-04-16 23:31:00,67.6,54.9,30.35,SSE,158,0.0,6.0,64,0.00,,,0.00,WUHU216HW,2013-04-17 03:31:00,
2013-04-16 23:36:00,67.6,55.4,30.35,SE,135,0.0,6.0,65,0.00,,,0.00,WUHU216HW,2013-04-17 03:36:00,
2013-04-16 23:41:00,67.6,55.4,30.35,SSE,158,0.0,0.0,65,0.00,,,0.00,WUHU216HW,2013-04-17 03:41:00,
2013-04-16 23:46:00,67.2,55.0,30.36,SE,135,0.0,0.0,65,0.00,,,0.00,WUHU216HW,2013-04-17 03:46:00,
2013-04-16 23:51:00,67.2,55.0,30.35,SSE,158,2.4,2.4,65,0.00,,,0.00,WUHU216HW,2013-04-17 03:51:00,
2013-04-16 23:56:00,67.2,55.0,30.36,South,180,0.0,4.4,65,0.00,,,0.00,WUHU216HW,2013-04-17 03:56:00,